Wind_Speed
43 41 41 40 38 36 34 30 26 24 22 20 19 15 11 9 9 11 12 12 12 12 14 16 17 19 20 25 28 27 29 28 28 29 29 30 31 30 31 32 32 31 30 38 43
42 44 42 41 40 38 36 33 29 26 24 23 21 19 15 13 12 11 13 13 14 15 16 17 19 19 20 24 25 28 29 29 29 29 28 29 31 33 31 28 24 20 24 37 29
39 45 44 42 40 39 38 36 33 30 27 25 23 20 20 17 16 15 13 13 13 14 16 18 19 20 21 22 24 24 27 28 29 30 30 29 28 28 29 30 29 24 23 35 25
37 41 44 43 41 39 40 38 36 33 30 27 25 23 21 21 20 19 18 18 17 17 17 18 18 19 21 22 23 24 26 27 27 28 29 30 31 32 33 35 34 34 33 39 50
36 38 41 43 42 40 38 40 38 35 33 31 28 26 25 24 23 23 22 21 21 21 21 22 22 23 24 26 28 30 31 32 32 33 34 36 38 39 39 41 42 44 44 44 46
35 36 38 40 42 41 38 37 39 39 37 34 32 30 29 27 27 26 26 25 25 25 25 26 26 28 30 31 33 34 36 37 39 40 41 42 41 44 46 45 45 45 47 47 47
34 34 36 35 39 41 39 37 36 36 37 37 37 35 34 33 31 31 31 30 30 30 31 31 31 32 33 36 37 38 38 39 40 40 42 41 37 29 29 38 41 42 44 44 44
32 33 33 33 33 37 38 37 36 35 34 33 34 36 36 35 34 34 34 33 33 33 34 35 34 36 37 37 37 36 34 32 34 34 35 35 33 37 48 43 39 41 43 43 44
30 30 31 29 28 32 35 35 36 36 35 34 33 32 32 31 32 31 31 31 31 31 32 32 32 32 33 33 33 33 34 34 32 30 25 19 17 19 18 18 20 23 27 28 30
29 29 28 26 24 27 30 32 32 33 33 33 33 33 33 33 32 32 31 30 30 30 30 28 27 30 32 33 30 25 19 15 10 9 6 5 6 7 8 11 12 12 16 20 22
28 28 27 24 22 22 25 28 30 31 31 31 31 30 30 30 31 29 27 26 25 26 28 28 29 26 18 11 7 6 4 2 3 4 5 3 5 7 8 11 13 13 14 15 15
27 27 25 22 21 21 21 23 26 29 30 31 31 30 30 29 27 25 24 25 25 26 26 15 9 6 5 3 4 2 3 3 3 5 7 11 11 12 13 15 15 16 17 15 15
25 25 23 21 20 20 21 23 24 25 26 26 28 31 31 28 25 24 22 19 13 11 8 7 5 3 3 4 5 4 5 5 6 7 8 10 14 14 16 17 17 18 19 20 17
23 23 22 20 21 22 23 24 24 23 21 21 22 21 19 18 17 12 10 11 11 8 5 6 4 4 5 6 8 10 9 11 12 14 16 15 16 16 18 17 21 21 21 22 22
22 22 21 22 21 19 17 17 19 22 21 19 15 15 16 15 12 10 10 10 9 8 8 8 7 6 8 10 12 14 17 19 19 21 23 22 24 15 17 21 24 24 24 22 22
21 21 19 18 17 15 13 13 15 18 20 21 19 18 16 15 14 12 11 10 10 10 8 7 6 7 11 14 17 19 21 24 25 26 27 26 27 26 22 23 25 24 26 25 24
23 22 20 18 17 17 17 18 19 20 20 19 19 18 18 17 15 13 12 10 9 8 8 9 9 12 15 17 20 22 23 25 26 29 32 33 31 31 30 27 29 27 26 30 28
22 20 19 20 20 20 20 19 19 18 19 19 19 18 16 14 14 13 12 10 11 12 13 14 13 19 19 21 24 26 28 28 28 30 33 38 36 34 32 29 32 27 28 32 33
23 22 21 21 21 21 21 20 19 18 17 17 17 17 16 14 13 13 13 15 16 18 19 21 21 22 27 28 30 30 32 33 33 32 33 37 40 45 35 30 31 31 34 30 34
25 23 22 22 22 22 22 22 20 18 18 16 15 15 14 13 14 15 17 21 22 25 27 28 30 30 30 33 37 36 36 35 37 36 36 38 41 42 44 42 37 28 37 34 32
24 23 23 22 22 23 22 22 21 20 18 17 16 16 16 18 19 21 22 26 27 28 31 34 35 37 35 36 38 39 37 40 40 41 40 40 48 45 45 45 47 34 40 36 35
26 25 25 24 24 23 24 24 22 22 21 21 21 22 23 25 26 28 28 28 33 32 33 36 37 38 39 42 43 42 42 43 44 43 43 43 47 46 52 49 54 41 43 42 39
27 27 27 26 25 26 27 27 26 26 26 27 27 28 29 30 32 33 34 33 38 38 40 41 43 43 46 47 51 45 48 47 48 49 45 46 45 60 51 52 50 46 41 39 32
29 27 27 27 26 27 28 30 31 31 31 31 32 33 33 35 36 39 40 40 41 44 44 47 48 50 50 52 57 56 55 53 53 53 55 48 52 54 59 53 50 43 40 44 46
29 28 28 28 27 28 29 30 32 34 35 35 36 37 38 40 41 44 46 48 47 46 52 54 54 55 56 58 60 64 63 62 61 60 62 55 55 52 58 64 63 48 45 52 57
32 31 31 31 31 31 31 30 32 33 36 37 39 40 43 45 49 50 51 53 56 55 54 57 61 61 61 63 62 61 62 64 64 62 60 62 61 64 60 73 63 53 48 58 62
35 34 33 33 33 33 34 34 35 37 39 40 44 46 48 50 52 54 57 59 61 63 65 66 65 63 61 62 59 56 63 63 61 62 64 62 63 58 60 64 69 61 51 55 60
Wind_Direction
211 210 209 208 204 203 203 202 203 203 204 206 207 205 198 197 198 197 196 199 202 204 204 212 225 230 234 233 233 242 244 252 255 261 265 267 270 272 276 280 281 280 287 288 283
212 212 210 210 210 207 206 206 207 209 211 210 212 209 205 207 208 208 211 212 211 215 220 228 228 233 238 241 243 249 252 253 260 263 265 268 274 277 278 279 282 286 295 296 282
213 212 212 211 212 211 210 211 211 212 214 214 217 216 213 212 213 215 218 221 225 230 234 237 236 238 243 248 251 250 254 260 266 270 272 274 275 275 275 276 278 271 246 270 255
213 213 213 213 212 213 212 214 215 216 218 218 220 222 221 218 220 221 222 223 227 233 239 244 249 251 255 259 261 261 262 264 265 269 271 273 275 274 273 273 272 271 263 261 270
211 213 213 214 214 215 215 215 217 218 222 225 227 228 229 229 230 230 230 233 236 238 241 243 248 254 258 262 265 267 268 269 270 271 273 273 273 273 272 273 273 272 271 268 269
210 212 213 214 215 216 218 218 220 224 226 229 231 233 235 238 240 241 243 244 246 247 251 253 255 260 264 267 268 270 271 272 272 273 274 274 277 278 275 272 274 273 272 271 270
210 210 211 214 215 216 218 221 223 227 230 232 235 238 240 243 246 248 250 252 255 256 258 259 261 264 267 272 274 274 274 275 275 275 276 275 277 277 273 273 276 274 272 271 271
207 208 209 211 215 217 218 222 226 228 231 233 237 241 245 248 251 253 256 259 261 263 264 265 267 271 274 275 277 279 280 280 279 280 281 282 277 262 277 285 283 280 277 274 272
203 203 205 208 214 217 218 221 226 230 234 236 238 241 244 246 248 252 255 259 262 264 266 267 271 275 276 278 280 282 283 281 284 285 286 288 288 288 296 298 294 288 285 281 278
193 196 198 201 209 213 217 221 225 229 233 238 241 244 246 249 251 254 258 261 265 268 271 271 273 275 280 281 282 283 278 281 286 291 291 304 308 302 301 295 299 308 307 298 290
187 190 193 199 205 211 217 222 225 228 231 235 239 242 243 246 249 254 258 262 265 268 271 274 280 280 275 267 263 260 256 239 272 289 313 334 321 315 317 320 322 319 318 323 318
185 188 193 199 205 209 214 219 224 228 232 235 236 239 242 244 248 252 258 262 265 269 274 272 242 232 225 223 242 230 211 214 256 294 316 315 323 330 337 339 333 325 322 321 331
184 189 194 201 210 217 220 222 223 226 228 232 235 238 242 248 254 257 259 260 244 229 216 183 186 182 192 236 260 246 257 266 285 285 288 301 316 323 330 334 335 335 326 319 316
186 191 198 209 218 222 225 226 224 225 225 227 229 232 232 235 238 224 189 175 181 184 156 159 179 209 234 265 290 300 301 300 296 297 302 306 305 320 321 327 329 329 332 331 323
187 193 203 213 223 226 225 225 223 219 218 221 213 184 173 168 166 162 158 165 173 180 193 199 219 239 274 289 295 299 297 297 298 300 306 306 306 309 311 320 323 322 319 323 329
188 191 187 180 177 172 158 150 149 149 148 152 153 150 150 151 158 163 173 186 194 196 208 218 242 273 279 286 290 293 295 296 298 299 300 304 304 309 311 314 314 315 317 318 318
171 171 175 180 174 160 152 148 145 148 148 144 144 149 159 167 177 181 187 204 218 232 246 259 270 274 277 285 287 289 292 295 298 298 298 301 301 303 304 307 309 317 318 312 314
179 184 182 166 158 155 156 155 156 157 158 161 165 169 173 179 188 199 213 228 248 251 259 267 264 286 275 286 288 293 296 295 296 299 298 297 294 296 294 305 304 313 307 307 307
183 180 172 166 165 165 168 170 174 177 178 179 180 182 190 200 213 226 239 249 259 262 264 268 271 276 284 285 287 290 291 293 293 294 293 293 296 292 296 290 298 308 299 300 302
179 178 177 175 176 180 184 186 187 192 196 197 202 209 218 232 245 254 266 270 273 276 277 276 279 277 282 288 289 289 288 290 291 291 291 290 287 289 292 296 296 300 292 300 300
187 188 188 188 191 194 198 200 199 203 210 219 227 237 246 256 260 265 269 279 278 281 284 286 285 285 285 283 284 286 289 292 290 289 288 286 287 286 289 293 292 301 292 296 300
197 199 200 200 204 206 210 213 216 221 227 234 244 251 259 264 268 272 275 280 282 281 284 282 284 285 285 284 284 285 287 287 285 285 286 287 287 287 289 294 298 297 295 302 297
205 207 210 213 216 218 220 225 228 232 238 244 251 257 264 268 272 275 278 284 287 286 287 286 286 285 285 285 284 285 284 284 284 283 283 283 285 283 287 287 290 296 289 299 285
212 215 220 224 226 228 231 235 240 244 247 252 258 263 267 270 273 278 282 283 287 286 285 286 287 287 287 289 289 288 286 285 282 283 280 280 279 284 287 284 283 287 279 283 286
219 222 228 234 236 239 241 242 246 249 253 257 263 266 271 275 280 282 285 287 284 287 289 288 288 288 288 286 285 286 285 283 282 279 280 280 278 273 275 277 278 279 277 283 275
225 228 231 236 242 247 250 252 253 256 260 264 268 272 276 281 282 284 284 285 287 287 284 284 287 285 284 284 283 283 283 282 279 280 278 275 275 275 273 279 282 278 279 278 276
228 232 236 240 245 250 254 257 262 265 268 272 276 279 282 282 285 286 289 289 291 292 292 291 289 288 288 286 285 285 280 281 282 281 280 279 276 278 279 279 281 280 274 271 278
Height
10910 10916 10922 10928 10933 10939 10944 10948 10952 10956 10958 10960 10962 10964 10967 10968 10969 10970 10972 10974 10976 10978 10980 10983 10985 10987 10988 10989 10991 10993 10994 10996 10997 10997 10997 10997 10997 10998 10997 10997 10998 10998 11003 10998 10990
10904 10911 10917 10923 10929 10935 10941 10945 10948 10952 10955 10958 10961 10964 10966 10968 10969 10971 10972 10974 10976 10978 10980 10981 10983 10985 10986 10986 10989 10990 10991 10992 10993 10994 10994 10994 10994 10994 10993 10993 10994 10995 11003 10963 10974
10899 10906 10912 10918 10925 10931 10937 10941 10945 10949 10952 10956 10959 10962 10965 10966 10968 10970 10971 10973 10975 10976 10978 10980 10981 10983 10984 10984 10985 10987 10988 10988 10989 10990 10990 10990 10990 10990 10989 10988 10989 10992 10998 10977 10970
10894 10901 10907 10914 10920 10926 10932 10937 10941 10945 10949 10953 10956 10959 10962 10964 10967 10968 10970 10971 10973 10975 10976 10978 10979 10980 10981 10982 10982 10983 10984 10984 10985 10986 10986 10985 10984 10984 10983 10982 10983 10982 10985 10985 10975
10890 10896 10902 10909 10916 10922 10927 10933 10937 10941 10945 10949 10953 10956 10958 10961 10964 10965 10967 10969 10971 10972 10974 10975 10976 10977 10978 10978 10978 10979 10979 10979 10980 10980 10979 10977 10974 10973 10973 10972 10972 10970 10970 10970 10967
10886 10892 10899 10905 10912 10917 10923 10928 10933 10937 10941 10945 10948 10951 10954 10957 10959 10961 10964 10966 10967 10969 10970 10971 10972 10972 10972 10972 10972 10972 10972 10973 10973 10973 10970 10968 10969 10965 10964 10962 10961 10962 10959 10957 10957
10882 10889 10895 10901 10907 10913 10919 10924 10929 10933 10937 10941 10944 10946 10949 10952 10955 10957 10959 10961 10963 10964 10965 10966 10967 10967 10966 10966 10965 10965 10965 10964 10964 10964 10961 10961 10962 10955 10952 10952 10952 10951 10950 10949 10947
10880 10886 10892 10898 10904 10910 10915 10920 10924 10928 10932 10936 10939 10942 10944 10948 10950 10952 10954 10955 10957 10958 10958 10959 10960 10960 10959 10958 10958 10957 10958 10957 10955 10955 10954 10952 10953 10950 10946 10943 10942 10940 10938 10939 10938
10877 10883 10890 10896 10901 10906 10911 10915 10920 10924 10927 10931 10934 10937 10940 10942 10944 10946 10948 10950 10951 10952 10952 10953 10954 10954 10952 10952 10952 10952 10950 10948 10948 10948 10947 10945 10943 10940 10938 10937 10935 10933 10930 10929 10929
10876 10882 10888 10894 10898 10902 10907 10911 10915 10919 10922 10925 10928 10932 10934 10936 10939 10941 10943 10945 10946 10946 10946 10947 10949 10948 10947 10945 10945 10945 10943 10944 10944 10943 10943 10942 10941 10940 10938 10935 10932 10929 10926 10923 10923
10875 10881 10886 10891 10896 10899 10903 10906 10910 10914 10918 10921 10923 10926 10928 10931 10933 10936 10938 10940 10941 10941 10940 10942 10942 10942 10941 10940 10941 10941 10942 10941 10941 10941 10940 10940 10939 10938 10936 10933 10929 10926 10923 10920 10918
10874 10879 10885 10889 10893 10897 10900 10902 10906 10909 10913 10915 10918 10920 10923 10926 10930 10932 10934 10936 10936 10936 10936 10937 10937 10938 10938 10938 10939 10940 10940 10940 10940 10939 10938 10936 10936 10935 10933 10930 10927 10924 10920 10918 10916
10874 10879 10883 10887 10890 10893 10896 10899 10902 10904 10907 10910 10913 10915 10918 10922 10926 10928 10929 10930 10931 10932 10933 10935 10936 10937 10937 10937 10937 10938 10938 10938 10938 10937 10936 10935 10933 10932 10930 10927 10926 10923 10919 10916 10915
10873 10877 10881 10884 10887 10889 10892 10894 10897 10900 10904 10907 10909 10912 10916 10919 10921 10924 10926 10928 10929 10931 10933 10934 10935 10935 10935 10934 10934 10934 10935 10935 10935 10934 10933 10933 10931 10930 10927 10926 10923 10920 10918 10914 10912
10871 10875 10879 10882 10884 10886 10889 10891 10893 10897 10902 10905 10908 10910 10913 10917 10920 10923 10925 10927 10929 10931 10932 10933 10932 10933 10933 10932 10932 10932 10932 10932 10931 10930 10929 10928 10926 10928 10926 10923 10919 10917 10914 10913 10911
10869 10873 10877 10881 10884 10887 10889 10891 10894 10897 10901 10904 10908 10911 10914 10917 10920 10922 10924 10926 10927 10928 10929 10930 10931 10931 10931 10930 10929 10929 10928 10927 10926 10924 10923 10922 10920 10919 10921 10919 10916 10914 10911 10910 10908
10869 10873 10877 10880 10884 10887 10891 10893 10897 10899 10902 10906 10909 10911 10914 10916 10919 10921 10923 10924 10925 10926 10927 10927 10928 10928 10927 10927 10926 10925 10925 10923 10922 10919 10915 10915 10914 10913 10912 10912 10911 10911 10909 10904 10904
10869 10873 10877 10881 10885 10888 10891 10894 10897 10900 10903 10906 10909 10911 10914 10916 10918 10920 10921 10923 10923 10923 10924 10924 10925 10923 10923 10922 10921 10920 10918 10918 10917 10914 10910 10905 10906 10907 10906 10908 10904 10907 10904 10900 10897
10869 10873 10877 10882 10886 10889 10892 10895 10898 10900 10904 10906 10909 10911 10913 10915 10917 10918 10919 10920 10920 10920 10920 10920 10920 10920 10917 10916 10915 10915 10912 10910 10909 10908 10906 10900 10895 10890 10900 10901 10901 10901 10894 10896 10890
10868 10873 10878 10882 10886 10889 10891 10894 10897 10900 10902 10905 10907 10909 10911 10913 10914 10915 10915 10914 10915 10914 10913 10913 10913 10913 10912 10909 10905 10905 10904 10903 10900 10900 10898 10894 10889 10889 10885 10888 10889 10896 10884 10887 10885
10868 10873 10877 10881 10885 10888 10891 10893 10895 10898 10900 10902 10904 10905 10907 10908 10909 10910 10910 10909 10908 10908 10906 10905 10904 10902 10903 10902 10899 10897 10896 10892 10892 10890 10890 10887 10875 10880 10880 10876 10873 10885 10877 10877 10876
10867 10871 10875 10878 10883 10886 10888 10891 10893 10895 10897 10898 10900 10901 10901 10902 10903 10903 10903 10903 10899 10901 10900 10897 10895 10894 10893 10890 10888 10889 10886 10884 10883 10882 10880 10878 10868 10870 10861 10865 10857 10872 10864 10865 10865
10864 10868 10872 10875 10879 10882 10885 10887 10889 10891 10893 10894 10895 10895 10895 10896 10895 10895 10895 10895 10891 10892 10888 10888 10885 10885 10882 10880 10874 10881 10877 10874 10870 10869 10871 10868 10868 10842 10861 10852 10852 10856 10855 10855 10855
10861 10865 10868 10871 10875 10878 10880 10882 10884 10885 10887 10888 10888 10888 10888 10888 10888 10886 10885 10886 10884 10882 10879 10876 10874 10872 10871 10868 10860 10861 10860 10860 10857 10856 10853 10859 10854 10844 10829 10843 10843 10847 10844 10840 10840
10858 10862 10864 10867 10870 10872 10875 10877 10878 10879 10879 10880 10880 10880 10880 10879 10878 10876 10875 10872 10873 10872 10865 10863 10862 10858 10856 10853 10848 10843 10841 10841 10840 10838 10836 10841 10837 10838 10823 10818 10822 10835 10833 10827 10823
10853 10856 10859 10862 10864 10866 10867 10869 10870 10871 10871 10871 10870 10871 10870 10870 10865 10865 10862 10860 10856 10856 10856 10852 10846 10845 10843 10836 10834 10832 10824 10817 10818 10819 10820 10817 10820 10813 10814 10791 10811 10826 10822 10806 10803
10847 10851 10853 10856 10858 10860 10861 10862 10862 10862 10862 10862 10860 10860 10860 10856 10854 10851 10848 10845 10842 10838 10834 10830 10827 10826 10824 10817 10816 10815 10803 10803 10803 10797 10794 10797 10794 10801 10798 10791 10777 10787 10803 10800 10792